Showing default

KSLV-II DUMMY, 52895

Orbit data source: Space-Track

KSLV-II DUMMY, 52895 is a payload satellite owned by KARI (KR) in SSO that was launched on Tue, 21 Jun 2022 UTC via an NURI launch vehicle from the Naro Space Center, South Korea (NSC). Payload-class satellites include a variety of spacecraft equipped with specific instruments for various scientific and technological missions. These include communications satellites like Starlink; space stations such as the ISS; scientific satellites like the Hubble; Earth observation satellites from companies like Planet Labs, Umbra, and HawkEye 360; GPS; miniature CubeSats for education and research; and military/defense satellites.

Loading next visibility...
Identifier
52895, 2022-065B
Orbit
SSO
Country
Flag of KRKR / SKOR
Related business
Manufacturer
KARI
Mission
Operational Civil Technology
Bus & Motor
Unknown
Mass
1,300 kg wet, 1,300 kg dry
Launch date (UTC)
2022-06-21 (4 years ago)
Launch vehicle
NURI
Launch site
Naro Space Center, South Korea (NSC)
Object type
Payload
Rocket body
Debris
Shape & HBR
Box, 1.0 m
Radar Cross Section
2.500 m², Large (>1 m²)

Expand to show TLE details & history
Last TLE update: 2 days ago

TLE from 2 days ago
0 KSLV-II DUMMY
1 52895U 22065B   26171.39886235  .00000020  00000-0  14167-4 0  9990
2 52895  98.2350 311.2304 0008923  34.2804 325.8970 14.58691898212823
Epoch: 2026-06-20T09:34Z
TLE epoch observation values (Epoch: 2026-06-20T09:34:21.707Z)
Latitude
0.00004°
Longitude
-100.9741°
Altitude
695.156 km
Speed
7.511 km/s
True Right ascension
20h 44m 55s
True Declination
0° 00' 00"
Sunlit
Object was in full shadow at epoch
Visualization orbit readout
Latitude
Unknown
Longitude
Unknown
Altitude
Unknown
Speed
Unknown
Apparent Right ascension
Unknown
Apparent Declination
Unknown
Sunlit
N/A
Visualization observer readout
Local Sidereal Time
21:35:05
Azimuth
Unknown
Elevation
Unknown
Doppler factor
Unknown
Orbital elements
Apogee altitude
700.796 km
Perigee altitude
688.175 km
Semi-major axis
7,072.622 km
Eccentricity
0.00089
Inclination
98.235°
RAAN
311.2304°
Arg. of periapsis
34.2804°
True anomaly
325.83962°
Mean anomaly
325.897°
Eccentric anomaly
325.86831°
Mean motion
3.64899 °/min
Orbital period
98.66 mins
BSTAR
0.000014167
Loading maneuver chart data...
Computing Atmospheric mass density...
Loading historical data...
Loading historical data...
Loading historical data...
Loading historical data...
Loading historical data...
Loading historical data...
Loading historical data...

Documentation

Showing up to 5 results
|